Simultaneous Nadir Overpasses (SNOs) Predictions

Prediction of SNOs between AQUA and METOP-C Satellite Orbit:

Table of predicted SNOs for the next 14.0 days since TLE Epoch: 11/16/2019
Index Date (AQUA) Time (AQUA) Lat,Lon (AQUA) SZA (AQUA ) Date (METOP-C) Time (METOP-C) Lat,Lon (METOP-C) SZA (METOP-C ) Distance(km) Time Diff (sec)
1 11/16/2019 23:38:54 73.74, 179.63 92.51 11/16/2019 23:38:05 73.77, 179.59 92.54 2.97 49
2 11/17/2019 00:28:22 -73.85, -12.96 87.37 11/17/2019 00:28:45 -73.83, -12.93 87.39 2.29 23
3 11/19/2019 19:13:10 73.80,-114.04 93.24 11/19/2019 19:12:26 73.78,-113.97 93.23 2.66 44
4 11/19/2019 20:02:37 -73.85, 53.48 86.70 11/19/2019 20:03:06 -73.85, 53.51 86.71 1.19 29
5 11/22/2019 14:47:24 73.80, -47.62 93.87 11/22/2019 14:46:46 73.80, -47.53 93.87 2.87 38
6 11/22/2019 15:36:51 -73.86, 119.90 86.07 11/22/2019 15:37:26 -73.86, 119.95 86.07 1.49 35
7 11/25/2019 10:21:38 73.76, 18.91 94.41 11/25/2019 10:21:08 73.76, 18.80 94.42 3.36 30
8 11/25/2019 11:11:06 -73.88,-173.70 85.47 11/25/2019 11:11:47 -73.87,-173.61 85.48 2.57 41
9 11/28/2019 05:55:53 73.79, 85.30 94.97 11/28/2019 05:55:29 73.78, 85.24 94.96 2.11 24
10 11/28/2019 06:45:20 -73.85,-107.19 84.97 11/28/2019 06:46:09 -73.84,-107.29 84.98 3.36 49




NCC Satellite Simultaneous Nadir Overpasses (SNOs) Prediction Service
